Weather History for KBJC - March, 2012

Change the Weather History Date:

Wednesday, March 28, 2012

  Actual Average Record
Temperature  
Mean Temperature 58 °F -  
Max Temperature 73 °F 53 °F 76 °F (1986)
Min Temperature 42 °F 32 °F 12 °F (1987)
Degree Days  
Heating Degree Days 8    
Growing Degree Days 8 (Base 50)    
Moisture  
Dew Point 15 °F    
Average Humidity 24    
Maximum Humidity 77    
Minimum Humidity 6    
Precipitation  
Precipitation 0.00 in - - ()
Sea Level Pressure  
Sea Level Pressure 29.97 in    
Wind  
Wind Speed 6 mph (NNW)    
Max Wind Speed 14 mph    
Max Gust Speed -    
Visibility 12 miles    
Events      
Averages and records for this station are not official NWS values.
T = Trace of Precipitation, MM = Missing Value Source: NWS Daily Summary

Daily Weather History Graph

Daily Weather History Graph

Search for Another Location

Airport or City:

Trip Planner

Search our weather history database for the weather conditions in past years. The results will help you decide how hot, cold, wet, or windy it might be!

Date:

Astronomy

Mar. 28, 2012 Rise Set
Actual Time 6:50 AM MDT 7:21 PM MDT
Civil Twilight 6:22 AM MDT 7:48 PM MDT
Nautical Twilight 5:50 AM MDT 8:20 PM MDT
Astronomical Twilight 5:18 AM MDT 8:53 PM MDT
Moon 10:09 AM MDT (3/28) 12:25 AM MDT (3/28)
Length of Visible Light 13h 25m
Length of Day
12h 31m
Waxing Crescent, 31% of the Moon is Illuminated
Mar 28
Waxing Crescent
Mar 30
First Quarter
Apr 6
Full
Apr 13
Last Quarter
Apr 21
New

Hourly Weather History & Observations

Time (MDT) Temp. Windchill Dew Point Humidity Pressure Visibility Wind Dir Wind Speed Gust Speed Precip Events Conditions
12:17 AM 50.0 °F - 15.8 °F 26% 30.03 in 10.0 mi West 3.5 mph - N/A   Clear
12:37 AM 46.4 °F 43.5 °F 17.6 °F 32% 30.02 in 10.0 mi West 5.8 mph - N/A   Clear
12:57 AM 50.0 °F - 14.0 °F 24% 30.03 in 10.0 mi WNW 5.8 mph - N/A   Clear
1:16 AM 50.0 °F - 14.0 °F 24% 30.02 in 10.0 mi West 4.6 mph - N/A   Clear
1:37 AM 51.8 °F - 14.0 °F 22% 30.03 in 10.0 mi Calm Calm - N/A   Clear
1:57 AM 50.0 °F - 15.8 °F 26% 30.03 in 10.0 mi North 8.1 mph - N/A   Clear
2:17 AM 48.2 °F - 15.8 °F 27% 30.02 in 10.0 mi North 9.2 mph - N/A   Clear
2:37 AM 48.2 °F - 14.0 °F 25% 30.02 in 10.0 mi NW 8.1 mph - N/A   Clear
2:57 AM 46.4 °F 42.4 °F 15.8 °F 29% 30.01 in 10.0 mi North 8.1 mph - N/A   Clear
3:16 AM 46.4 °F 42.9 °F 17.6 °F 32% 30.01 in 10.0 mi NNW 6.9 mph - N/A   Clear
3:37 AM 50.0 °F - 15.8 °F 26% 30.01 in 10.0 mi NNW 11.5 mph - N/A   Clear
3:57 AM 46.4 °F 41.1 °F 17.6 °F 32% 30.01 in 10.0 mi NNW 11.5 mph - N/A   Clear
4:17 AM 44.6 °F 39.2 °F 15.8 °F 31% 30.01 in 10.0 mi WNW 10.4 mph - N/A   Clear
4:37 AM 42.8 °F 38.6 °F 17.6 °F 36% 30.01 in 10.0 mi WNW 6.9 mph - N/A   Clear
4:57 AM 44.6 °F - 19.4 °F 37% 30.01 in 10.0 mi Calm Calm - N/A   Clear
5:17 AM 42.8 °F - 19.4 °F 39% 30.02 in 10.0 mi Calm Calm - N/A   Clear
5:37 AM 42.8 °F 41.1 °F 17.6 °F 36% 30.01 in 10.0 mi West 3.5 mph - N/A   Clear
5:57 AM 42.8 °F 40.1 °F 17.6 °F 36% 30.02 in 10.0 mi West 4.6 mph - N/A   Clear
6:51 AM 44.6 °F - 10.4 °F 25% 30.02 in 40.0 mi Calm Calm - N/A   Partly Cloudy
7:50 AM 46.4 °F - 15.8 °F 29% 30.03 in 30.0 mi Calm Calm - N/A   Scattered Clouds
8:49 AM 48.2 °F - 19.4 °F 32% 30.03 in 40.0 mi SE 3.5 mph - N/A   Mostly Cloudy
9:48 AM 55.4 °F - 48.2 °F 77% 30.13 in 20.0 mi Variable 3.5 mph - N/A   Mostly Cloudy
10:51 AM 60.8 °F - 17.6 °F 19% 30.02 in 20.0 mi Variable 4.6 mph - N/A   Mostly Cloudy
11:48 AM 64.4 °F - 14.0 °F 14% 30.02 in 20.0 mi East 4.6 mph - N/A   Mostly Cloudy
12:50 PM 68.0 °F - 10.4 °F 11% 29.96 in 20.0 mi East 9.2 mph - N/A   Mostly Cloudy
1:50 PM 71.6 °F - 6.8 °F 8% 29.93 in 25.0 mi East 4.6 mph - N/A   Scattered Clouds
2:48 PM 73.4 °F - 5.0 °F 7% 29.89 in 25.0 mi East 9.2 mph - N/A   Scattered Clouds
3:50 PM 73.4 °F - 3.2 °F 6% 29.86 in 25.0 mi East 5.8 mph - N/A   Scattered Clouds
4:50 PM 73.4 °F - 3.2 °F 6% 29.85 in 25.0 mi NE 5.8 mph - N/A   Scattered Clouds
5:45 PM 73.4 °F - 6.8 °F 8% 29.84 in 25.0 mi NNE 8.1 mph - N/A   Scattered Clouds
7:47 PM 62.6 °F - 10.4 °F 13% 29.85 in 30.0 mi NNE 8.1 mph - N/A   Scattered Clouds
8:50 PM 62.6 °F - 12.2 °F 14% 29.86 in 30.0 mi NNW 9.2 mph - N/A   Scattered Clouds
9:50 PM 59.0 °F - 12.2 °F 16% 29.87 in 30.0 mi WNW 13.8 mph - N/A   Scattered Clouds
11:17 PM 59.0 °F - 10.4 °F 15% 29.87 in 10.0 mi WNW 10.4 mph - N/A   Clear
11:37 PM 59.0 °F - 10.4 °F 15% 29.86 in 10.0 mi WNW 9.2 mph - N/A   Clear
11:57 PM 59.0 °F - 12.2 °F 16% 29.86 in 10.0 mi WNW 13.8 mph - N/A   Clear